Location: Newark
(25.3833°N, 97.4000°E)
Time: 14:44:21
(UTC+00:00)

First-Move - Pass Details

Date: 23 February 2020
Orbit: 576 x 669 km, 97.6° (Epoch: 08 April)

Event Time Altitude Azimuth Distance (km) Brightness Sun altitude
Rises 22:55:04 0° 22° (NNE) 3,005 ? -15.1°
Reaches altitude 10° 22:57:27 10° 30° (NNE) 2,083 ? -14.6°
Maximum altitude 23:01:41 38° 99° (E) 1,005 ? -13.6°
Drops below altitude 10° 23:05:49 10° 167° (SSE) 2,036 ? -12.7°
Sets 23:08:07 0° 175° (S) 2,928 ? -12.2°
